Hourly Data Report for October 02, 2017

All times are specified in Local Standard Time (LST). Add 1 hour to adjust for Daylight Saving Time where and when it is observed.

TRACADIE
NOVA SCOTIA

45°36'30.080" N
61°40'47.020" W
66.70 m
8205895
71308
XTD

Download Data

Hourly Data (October 2017)
Hourly Data Report for October 2, 2017
Temp Definition
°C
Dew Point Temp Definition
°C
Rel Hum Definition
%
Wind Dir Definition
10's deg

Wind Spd Definition
km/h
Visibility Definition
km
Stn Press Definition
kPa
Hmdx Definition


Wind Chill Definition


Weather Definition


TIME
00:00 9.6 5.2 74 24 10   101.05     LegendNANA
01:00 9.8 6.2 78 23 9   101.06     LegendNANA
02:00 10.9 7.3 78 24 12   101.01     LegendNANA
03:00 11.1 8.4 84 24 12   101.01     LegendNANA
04:00 11.8 9.5 86 24 10   101.05     LegendNANA
05:00 12.8 10.4 86 4 6   101.15     LegendNANA
06:00 13.2 10.2 82 4 10   101.24     LegendNANA
07:00 14.2 8.4 68 2 20   101.32     LegendNANA
08:00 14.4 7.7 64 36 24   101.38     LegendNANA
09:00 14.6 7.8 64 35 26   101.45     LegendNANA
10:00 15.2 8.1 63 34 24   101.50     LegendNANA
11:00 15.4 8.6 64 34 27   101.52     LegendNANA
12:00 14.9 8.0 63 35 29   101.60     LegendNANA
13:00 13.1 8.5 73 36 32   101.63     LegendNANA
14:00 12.2 5.6 64 36 31   101.70     LegendNANA
15:00 11.0 5.3 68 36 36   101.75     LegendNANA
16:00 10.7 4.7 66 35 35   101.82     LegendNANA
17:00 10.6 4.1 64 35 33   101.92     LegendNANA
18:00 10.3 4.3 66 36 37   102.01     LegendNANA
19:00 10.4 5.3 71 35 37   102.06     LegendNANA
20:00 10.5 4.5 66 35 35   102.14     LegendNANA
21:00 10.8 4.8 66 36 37   102.18     LegendNANA
22:00 10.9 5.6 70 36 34   102.22     LegendNANA
23:00 11.1 6.0 71 2 26   102.25     LegendNANA

Notes on Data Quality.

Legend

  • E = Estimated
  • M = Missing
  • NA = Not Available
  • ‡ = Partner data that is not subject to review by the National Climate Archives
Date modified: